EW2355 Weather Reports


time (UTC)temp
C
wind
direction
speed
KPH
gust
KPH
rain 1hr
cm
rain 24hr
cm
rain mn
cm
humidity
%
barometer
mb
20260508181542 22 195 0.0 12.9 0.00 0.00 0.00 26 1006.6
20260508180035 22 318 3.2 12.9 0.00 0.00 0.00 25 1006.7
20260508174537 22 342 0.0 4.8 0.00 0.00 0.00 26 1006.8
20260508173027 21 318 1.6 8.0 0.00 0.00 0.00 27 1006.8
20260508171526 21 355 1.6 4.8 0.00 0.00 0.00 32 1006.8
20260508170024 21 16 1.6 6.4 0.00 0.00 0.00 33 1006.8
20260508164520 20 267 0.0 0.0 0.00 0.00 0.00 33 1006.8
20260508163018 19 286 0.0 3.2 0.00 0.00 0.00 36 1006.8
20260508161523 18 197 0.0 3.2 0.00 0.00 0.00 40 1006.9
20260508160010 18 168 0.0 3.2 0.00 0.00 0.00 41 1007.1
20260508154509 18 187 0.0 3.2 0.00 0.00 0.00 40 1007.1
20260508153012 17 35 0.0 1.6 0.00 0.00 0.00 41 1007.1
20260508151600 16 35 0.0 1.6 0.00 0.00 0.00 42 1007.2
20260508150059 15 64 0.0 4.8 0.00 0.00 0.00 43 1007.1
20260508144557 14 39 0.0 8.0 0.00 0.00 0.00 45 1007.1
20260508143115 13 98 0.0 4.8 0.00 0.00 0.00 48 1007.2
20260508141559 12 104 0.0 4.8 0.00 0.00 0.00 50 1007.1
20260508140107 11 101 0.0 6.4 0.00 0.00 0.00 52 1007.0
20260508134553 10 137 0.0 3.2 0.00 0.00 0.00 53 1006.9
20260508133051 10 125 0.0 11.3 0.00 0.00 0.00 54 1006.7
20260508131550 10 110 0.0 11.3 0.00 0.00 0.00 55 1006.7
20260508130047 9 90 0.0 8.0 0.00 0.00 0.00 55 1006.6
20260508124546 10 160 1.6 11.3 0.00 0.00 0.00 54 1006.5
20260508123046 10 48 0.0 8.0 0.00 0.00 0.00 53 1006.2
20260508121539 10 100 0.0 3.2 0.00 0.00 0.00 53 1006.0
20260508120036 10 124 0.0 3.2 0.00 0.00 0.00 52 1005.9
20260508114534 10 91 0.0 4.8 0.00 0.00 0.00 51 1005.9
20260508113032 11 67 0.0 6.4 0.00 0.00 0.00 50 1005.9
20260508111531 11 103 1.6 6.4 0.00 0.00 0.00 50 1005.9
20260508110033 11 108 1.6 6.4 0.00 0.00 0.00 49 1005.8
20260508104626 11 130 1.6 6.4 0.00 0.00 0.00 48 1005.7
20260508103038 11 92 0.0 8.0 0.00 0.00 0.00 48 1005.6
20260508101523 11 96 1.6 8.0 0.00 0.00 0.00 48 1005.5
20260508100022 11 54 1.6 6.4 0.00 0.00 0.00 47 1005.5
20260508094520 12 88 0.0 4.8 0.00 0.00 0.00 47 1005.5
20260508093020 12 116 0.0 8.0 0.00 0.00 0.00 46 1005.3
20260508091518 12 113 0.0 8.0 0.00 0.00 0.00 46 1005.4
20260508090016 12 225 0.0 11.3 0.00 0.00 0.00 45 1005.5
20260508084513 12 54 0.0 6.4 0.00 0.00 0.00 44 1005.4
20260508083010 13 63 0.0 8.0 0.00 0.00 0.00 43 1005.2
20260508081615 13 71 0.0 8.0 0.00 0.00 0.00 43 1005.2
20260508080007 13 96 0.0 3.2 0.00 0.00 0.00 43 1005.4
20260508074506 13 116 0.0 4.8 0.00 0.00 0.00 43 1005.5
20260508073005 13 107 0.0 4.8 0.00 0.00 0.00 43 1005.6
20260508071504 13 103 1.6 8.0 0.00 0.00 0.00 43 1005.7
20260508070002 13 116 0.0 3.2 0.00 0.00 0.00 42 1005.6
20260508064558 14 66 0.0 1.6 0.00 0.00 0.00 41 1005.5
20260508063057 15 360 0.0 3.2 0.00 0.00 0.00 40 1005.3
20260508061551 15 127 0.0 4.8 0.00 0.00 0.00 38 1005.1
20260508054636 15 108 0.0 4.8 0.00 0.00 0.00 38 1005.1
20260508053052 15 110 0.0 4.8 0.00 0.00 0.00 38 1005.1
20260508051548 15 98 0.0 4.8 0.00 0.00 0.00 39 1005.1
20260508050048 15 90 0.0 6.4 0.00 0.00 0.00 40 1005.0
20260508044547 14 116 0.0 3.2 0.00 0.00 0.00 42 1005.1
20260508043052 14 190 0.0 1.6 0.00 0.00 0.00 43 1005.2
20260508041545 15 190 0.0 0.0 0.00 0.00 0.00 44 1005.2
20260508040045 15 190 0.0 0.0 0.00 0.00 0.00 42 1005.2
20260508034550 16 190 0.0 0.0 0.00 0.00 0.00 40 1004.9
20260508033043 17 190 0.0 0.0 0.00 0.00 0.00 40 1004.9
20260508031544 17 190 0.0 0.0 0.00 0.00 0.00 37 1004.9
20260508030045 18 190 0.0 0.0 0.00 0.00 0.00 35 1004.8
20260508024547 19 190 0.0 0.0 0.00 0.00 0.00 32 1004.6
20260508023041 20 190 0.0 0.0 0.00 0.00 0.00 29 1004.5
20260508021540 21 190 0.0 0.0 0.00 0.00 0.00 27 1004.5
20260508020040 22 190 0.0 1.6 0.00 0.00 0.00 25 1004.5
20260508014540 22 220 0.0 1.6 0.00 0.00 0.00 24 1004.6
20260508013035 22 350 0.0 1.6 0.00 0.00 0.00 23 1004.8
20260508011535 23 19 1.6 4.8 0.00 0.00 0.00 22 1004.9
20260508010045 23 299 0.0 3.2 0.00 0.00 0.00 22 1005.0
20260508004533 24 328 0.0 3.2 0.00 0.00 0.00 21 1005.0
20260508003031 25 330 0.0 4.8 0.00 0.00 0.00 20 1005.2
20260508001530 25 214 0.0 4.8 0.00 0.00 0.00 22 1005.5
20260508000025 25 328 1.6 9.7 0.00 0.00 0.00 21 1005.7
20260507234524 25 331 3.2 9.7 0.00 0.00 0.00 21 1005.7
20260507233022 25 360 3.2 12.9 0.00 0.00 0.00 22 1005.8
20260507231522 25 274 1.6 11.3 0.00 0.00 0.00 20 1006.0
20260507230025 25 62 1.6 12.9 0.00 0.00 0.00 21 1006.0
20260507224518 25 289 1.6 12.9 0.00 0.00 0.00 22 1006.0
20260507223015 25 331 1.6 6.4 0.00 0.00 0.00 22 1006.3
20260507221512 25 287 4.8 14.5 0.00 0.00 0.00 22 1006.5
20260507220009 26 291 3.2 9.7 0.00 0.00 0.00 20 1006.9
20260507214507 25 222 1.6 9.7 0.00 0.00 0.00 21 1007.0
20260507213005 25 196 3.2 9.7 0.00 0.00 0.00 21 1007.4
20260507211604 25 295 0.0 8.0 0.00 0.00 0.00 21 1007.7
20260507210103 25 316 1.6 6.4 0.00 0.00 0.00 23 1008.0
20260507204556 25 217 0.0 6.4 0.00 0.00 0.00 23 1008.3
20260507203057 24 4 1.6 6.4 0.00 0.00 0.00 20 1008.6
20260507201549 23 313 0.0 4.8 0.00 0.00 0.00 21 1008.8
20260507200050 23 305 1.6 8.0 0.00 0.00 0.00 24 1009.0
20260507194548 23 199 0.0 11.3 0.00 0.00 0.00 22 1009.1
20260507193042 23 197 3.2 12.9 0.00 0.00 0.00 25 1009.4
20260507191540 22 315 1.6 8.0 0.00 0.00 0.00 21 1009.6
20260507190039 23 341 0.0 8.0 0.00 0.00 0.00 27 1010.0
20260507184535 22 193 1.6 4.8 0.00 0.00 0.00 22 1010.3
20260507183042 21 135 0.0 3.2 0.00 0.00 0.00 26 1010.7